Location: Bu�n Treun
(12.1333°N, 108.3167°E)
Time: 13:14:48
(UTC+00:00)

CZ-2C R/B - Pass Details

Date: 13 July 2020
Orbit: 667 x 785 km, 98.2° (Epoch: 06 August)

Event Time Altitude Azimuth Distance (km) Brightness Sun altitude
Rises 19:47:00 0° 34° (NE) 3,036 6.5 -35.5°
Reaches altitude 10° 19:49:43 10° 50° (NE) 2,107 5.6 -35.0°
Enters shadow 19:52:45 21° 91° (E) 1,493 4.4 -34.4°
